Find Starlink 30349

NORAD ID: 57713 Int'l Des: 2023-129 Owner: SPXS Country: US Constellation: starlink operational
LEOCIRCULAR

Live Position

Loading 3D Globe...

About Starlink 30349

Description loading...

Upcoming Passes

Passes for default location (London). Set your location on the main map for personalized predictions.

Altitude History

Loading altitude history...

Two-Line Element Set

1 57713U 23129R 26127.10166623 .00001786 00000-0 74426-4 0 9992
2 57713 43.0018 148.2127 0000961 277.9842 82.0900 15.27577061149476
Epoch: May 7, 2026 • Age: 16 hours

Current Status

Altitude 487.2 km
Velocity 7.62 km/s
Sub-Earth Point -20.48°S, 14.5°W
Launch Date Aug 27, 2023
Age 2.6 years
Type internet

Technical Details

Classification Payload
Mass 730.00 kg
Dry Mass 700.00 kg
Total Mass 730.00 kg
Length 0.30 m
Diameter 4.10 m
Span 29.00 m
Shape Box + pan
Manufacturer SPXS
Bus Type Starlink V2M
Phase Status In Orbit
Owner/State SPXS/US

Most Searched